Location: Madrid
(40.4000°N, 3.6830°W)
Time: 02:57:02
(UTC+02:00)

ISS - Pass Details

Date: 22 May 2019
Orbit: 408 x 418 km, 51.6° (Epoch: 26 May)

Event Time Altitude Azimuth Distance (km) Brightness Sun altitude
Rises 01:04:07 0° 303° (WNW) 2,355 0.8 -27.3°
Reaches altitude 10° 01:07:17 10° 336° (NNW) 1,495 0.0 -27.5°
Maximum altitude 01:08:42 12° 1° (N) 1,372 -0.3 -27.6°
Drops below altitude 10° 01:10:08 10° 26° (NNE) 1,497 -0.4 -27.7°
Enters shadow 01:12:00 - 49° (NE) 1,941 -0.1 -27.8°
